TimeEDT,TemperatureF,Dew PointF,Humidity,Sea Level PressureIn,VisibilityMPH,Wind Direction,Wind SpeedMPH,Gust SpeedMPH,PrecipitationIn,Events,Conditions,WindDirDegrees,DateUTC
12:15 AM,66.7,64.4,92,29.86,5.0,Calm,Calm,-,N/A,,Clear,0,2013-08-07 04:15:00
12:35 AM,66.7,64.0,91,29.85,5.0,SSE,4.6,-,N/A,,Clear,150,2013-08-07 04:35:00
12:55 AM,66.6,64.0,92,29.85,5.0,Calm,Calm,-,N/A,,Clear,0,2013-08-07 04:55:00
1:15 AM,66.4,64.0,92,29.85,5.0,SSE,3.5,-,N/A,,Clear,160,2013-08-07 05:15:00
1:35 AM,66.6,64.4,93,29.85,5.0,South,3.5,-,N/A,,Clear,170,2013-08-07 05:35:00
1:55 AM,67.1,64.8,92,29.85,5.0,South,4.6,-,N/A,,Clear,190,2013-08-07 05:55:00
2:15 AM,68.2,65.7,92,29.84,5.0,SSW,4.6,-,N/A,,Clear,200,2013-08-07 06:15:00
2:35 AM,68.4,65.7,91,29.84,7.0,South,5.8,-,N/A,,Clear,170,2013-08-07 06:35:00
2:55 AM,68.0,65.3,91,29.83,5.0,South,3.5,-,N/A,,Scattered Clouds,170,2013-08-07 06:55:00
3:15 AM,68.2,65.7,92,29.82,5.0,South,3.5,-,N/A,,Scattered Clouds,170,2013-08-07 07:15:00
3:35 AM,68.0,65.5,92,29.83,5.0,SSW,4.6,-,N/A,,Scattered Clouds,200,2013-08-07 07:35:00
3:55 AM,68.4,66.0,92,29.80,5.0,South,9.2,-,N/A,Rain,Rain,170,2013-08-07 07:55:00
4:15 AM,68.4,66.2,93,29.81,5.0,South,10.4,-,0.01,Rain,Rain,170,2013-08-07 08:15:00
4:35 AM,67.1,64.4,91,29.81,1.5,WSW,4.6,20.7,0.44,Rain,Heavy Rain,250,2013-08-07 08:35:00
4:54 AM,67.1,64.4,91,29.86,7.0,WNW,15.0,20.7,0.54,Rain,Light Rain,290,2013-08-07 08:54:00
5:15 AM,64.0,61.2,90,29.86,7.0,West,11.5,17.3,0.04,Rain,Light Rain,270,2013-08-07 09:15:00
5:35 AM,63.5,60.1,89,29.85,10.0,West,5.8,-,0.05,Rain,Rain,270,2013-08-07 09:35:00
5:54 AM,63.5,60.3,89,29.84,10.0,SSE,4.6,-,0.08,Rain,Rain,150,2013-08-07 09:54:00
6:15 AM,62.8,60.3,91,29.80,10.0,SSE,5.8,-,0.01,Rain,Light Rain,160,2013-08-07 10:15:00
6:35 AM,62.6,60.4,93,29.79,10.0,SSE,8.1,-,0.01,,Scattered Clouds,160,2013-08-07 10:35:00
6:55 AM,62.6,60.1,91,29.81,10.0,Calm,Calm,-,0.01,,Mostly Cloudy,0,2013-08-07 10:55:00
7:15 AM,62.8,60.3,91,29.81,10.0,SSW,4.6,-,N/A,Rain,Light Rain,200,2013-08-07 11:15:00
7:35 AM,63.5,60.1,89,29.78,10.0,South,8.1,-,N/A,Rain,Light Rain,180,2013-08-07 11:35:00
7:55 AM,64.4,59.9,85,29.75,10.0,SSE,3.5,-,N/A,,Light Drizzle,160,2013-08-07 11:55:00
8:15 AM,64.2,60.1,86,29.77,10.0,Calm,Calm,-,N/A,,Scattered Clouds,0,2013-08-07 12:15:00
8:35 AM,66.4,59.4,78,29.78,10.0,WSW,5.8,-,N/A,,Clear,250,2013-08-07 12:35:00
8:55 AM,66.6,60.1,80,29.79,10.0,SW,4.6,-,N/A,,Clear,220,2013-08-07 12:55:00
9:15 AM,67.3,60.4,79,29.79,10.0,SSW,5.8,-,N/A,,Clear,210,2013-08-07 13:15:00
9:35 AM,69.6,61.2,74,29.80,10.0,SW,6.9,-,N/A,,Clear,220,2013-08-07 13:35:00
9:55 AM,70.5,61.3,73,29.81,10.0,WSW,3.5,-,N/A,,Mostly Cloudy,250,2013-08-07 13:55:00
10:15 AM,70.7,62.2,75,29.81,10.0,West,3.5,-,N/A,,Overcast,260,2013-08-07 14:15:00
10:35 AM,72.9,63.0,71,29.81,10.0,WSW,8.1,-,N/A,,Mostly Cloudy,240,2013-08-07 14:35:00
10:55 AM,74.8,63.0,66,29.81,10.0,WSW,12.7,-,N/A,,Scattered Clouds,240,2013-08-07 14:55:00
11:15 AM,76.1,63.1,64,29.82,10.0,WSW,9.2,17.3,N/A,,Clear,250,2013-08-07 15:15:00
11:35 AM,77.0,63.5,63,29.82,10.0,WSW,11.5,16.1,N/A,,Clear,250,2013-08-07 15:35:00
11:55 AM,76.6,64.0,65,29.83,10.0,SW,11.5,-,N/A,,Scattered Clouds,230,2013-08-07 15:55:00
12:15 PM,76.6,64.8,67,29.83,10.0,SW,11.5,-,N/A,,Overcast,220,2013-08-07 16:15:00
12:34 PM,77.7,64.4,63,29.83,10.0,WSW,10.4,-,N/A,,Mostly Cloudy,240,2013-08-07 16:34:00
12:55 PM,78.8,63.9,60,29.83,10.0,West,10.4,16.1,N/A,,Mostly Cloudy,260,2013-08-07 16:55:00
1:15 PM,79.7,63.9,58,29.83,10.0,SSW,9.2,-,N/A,,Mostly Cloudy,200,2013-08-07 17:15:00
1:34 PM,80.2,64.4,58,29.83,10.0,WSW,9.2,-,N/A,,Scattered Clouds,240,2013-08-07 17:34:00
1:55 PM,80.1,64.6,59,29.82,10.0,SW,12.7,-,N/A,,Scattered Clouds,220,2013-08-07 17:55:00
2:15 PM,79.9,64.8,60,29.82,10.0,WSW,9.2,-,N/A,,Mostly Cloudy,250,2013-08-07 18:15:00
2:34 PM,79.5,64.8,60,29.82,10.0,WSW,10.4,-,N/A,,Mostly Cloudy,250,2013-08-07 18:34:00
2:55 PM,81.5,64.0,55,29.82,10.0,WSW,12.7,-,N/A,,Scattered Clouds,250,2013-08-07 18:55:00
3:15 PM,81.5,63.5,54,29.83,10.0,WSW,10.4,19.6,N/A,,Scattered Clouds,250,2013-08-07 19:15:00
3:34 PM,82.2,63.7,53,29.83,10.0,SW,11.5,16.1,N/A,,Scattered Clouds,230,2013-08-07 19:34:00
3:55 PM,81.5,61.7,51,29.83,10.0,West,12.7,16.1,N/A,,Scattered Clouds,260,2013-08-07 19:55:00
4:15 PM,81.7,63.1,53,29.82,10.0,West,5.8,9.2,N/A,,Scattered Clouds,280,2013-08-07 20:15:00
4:35 PM,82.6,61.9,49,29.82,10.0,WSW,9.2,-,N/A,,Scattered Clouds,240,2013-08-07 20:35:00
4:55 PM,82.8,58.6,44,29.82,10.0,WSW,11.5,18.4,N/A,,Clear,250,2013-08-07 20:55:00
5:15 PM,82.6,59.9,46,29.83,10.0,West,8.1,-,N/A,,Clear,260,2013-08-07 21:15:00
5:35 PM,82.0,60.1,47,29.83,10.0,WSW,9.2,-,N/A,,Scattered Clouds,250,2013-08-07 21:35:00
5:55 PM,79.7,61.9,54,29.83,10.0,West,5.8,-,N/A,,Mostly Cloudy,280,2013-08-07 21:55:00
6:15 PM,81.7,63.1,53,29.83,10.0,West,8.1,-,N/A,,Scattered Clouds,270,2013-08-07 22:15:00
6:35 PM,80.2,63.3,56,29.83,10.0,West,8.1,-,N/A,,Scattered Clouds,270,2013-08-07 22:35:00
6:55 PM,79.0,62.1,56,29.84,10.0,NW,8.1,-,N/A,,Scattered Clouds,310,2013-08-07 22:55:00
7:15 PM,77.4,62.2,59,29.85,10.0,WNW,3.5,-,N/A,,Scattered Clouds,290,2013-08-07 23:15:00
7:35 PM,77.5,61.2,57,29.85,10.0,NW,4.6,-,N/A,,Scattered Clouds,310,2013-08-07 23:35:00
7:55 PM,76.8,61.3,59,29.86,10.0,WNW,4.6,-,N/A,,Clear,300,2013-08-07 23:55:00
8:15 PM,75.6,61.0,60,29.86,10.0,WNW,5.8,-,N/A,,Clear,300,2013-08-08 00:15:00
8:35 PM,74.1,61.2,64,29.87,10.0,WNW,6.9,-,N/A,,Clear,290,2013-08-08 00:35:00
8:55 PM,72.7,60.8,66,29.87,10.0,WNW,5.8,-,N/A,,Clear,300,2013-08-08 00:55:00
9:14 PM,71.2,60.4,69,29.88,10.0,NW,4.6,-,N/A,,Clear,310,2013-08-08 01:14:00
9:35 PM,70.0,60.6,72,29.89,10.0,WNW,3.5,-,N/A,,Clear,290,2013-08-08 01:35:00
9:55 PM,68.9,60.4,74,29.90,10.0,NW,3.5,-,N/A,,Clear,310,2013-08-08 01:55:00
10:14 PM,68.5,60.1,74,29.91,10.0,WNW,3.5,-,N/A,,Clear,300,2013-08-08 02:14:00
10:35 PM,67.6,60.1,77,29.93,10.0,NW,4.6,-,N/A,,Clear,310,2013-08-08 02:35:00
10:54 PM,67.1,59.4,76,29.94,10.0,NW,3.5,-,N/A,,Clear,320,2013-08-08 02:54:00
11:15 PM,66.2,59.2,78,29.95,10.0,NW,4.6,-,N/A,,Clear,320,2013-08-08 03:15:00
11:35 PM,64.9,59.0,81,29.95,10.0,Calm,Calm,-,N/A,,Clear,0,2013-08-08 03:35:00
11:54 PM,64.4,59.0,83,29.96,10.0,NW,3.5,-,N/A,,Clear,320,2013-08-08 03:54:00